Погода в Весёлом

Россия / Ростовская область     47°05′29″N   40°44′26″E
темп.,
°C
ветер,
м/с
пор.,
м/с
влажн.,
%
обл.,
%
осадки,
мм/ч
давл.,
гПа
погр.,
м
4 декабря, сб
сб400:00+6ю71556100 0.0 1016305
03:00+8ююз71766100 0.0 1015452
06:00+9ююз71767100 0.0 1014512
09:00+9ююз61662100 0.0 1015507
12:00+11юз61462100 0.1 1014627
15:00+12юз61366100 0.1 1012610
18:00+9ю4977100 0.1 1012167
21:00+9ююв3761100 0.1 1011131
5 декабря, вс
вс500:00+8юв1162100 0.0 101013
03:00+7в2370100 0.0 101042
06:00+8ю41172100 0.4 1009370
09:00+9ююз71490100 3.9 1009694
12:00+10юз71486100 2.0 1009960
15:00+8зсз4894100 3.3 1011501
18:00+6сз4588100 0.0 1014341
21:00+5ссз1287100 0.0 1015211
6 декабря, пн
пн600:00+5сз2388100 0.0 1017243
03:00+4сз119461 0.0 101810
06:00+3з019597 0.0 101810
09:00+4ююз118982 0.0 1020123
12:00+7юз237196 0.0 1020582
15:00+8ююз127399 0.0 1020464
18:00+7юв238074 0.0 102078
21:00+7юв348396 0.0 1021112
7 декабря, вт
вт700:00+8юв4885100 0.0 1020192
03:00+7юв488978 0.0 1020147
06:00+8юв4977100 0.0 1019187
09:00+8юв51264100 0.0 1019224
12:00+12юв6135295 0.0 1017361
15:00+12юв61359100 0.0 1015376
18:00+10вюв71672100 0.0 1014351
21:00+8юв8177696 0.0 1013392
8 декабря, ср
ср800:00+7вюв71680100 0.0 1012397
03:00+6вюв71591100 0.0 1011388
06:00+6юв61087100 0.0 1011526
09:00+7вюв61285100 0.0 1010411
12:00+10вюв5770100 0.0 1008446
15:00+10вюв4771100 0.0 1008326
18:00+8вюв5982100 0.0 1008228
21:00+8вюв378596 0.0 1009199